Location: Andershausen
(51.8462°N, 9.8595°E)
Time: 09:56:55
(UTC+00:00)

Cosmos 1975 Rocket - Pass Details

Date: 18 November 2025
Orbit: 598 x 626 km, 82.5° (Epoch: 11 December)

Event Time Altitude Azimuth Distance (km) Brightness Sun altitude
Rises 16:02:59 0° 352° (N) 2,872 6.3 -5.9°
Reaches altitude 10° 16:05:16 10° 358° (N) 1,968 5.4 -6.2°
Maximum altitude 16:09:31 52° 75° (ENE) 766 3.2 -6.9°
Drops below altitude 10° 16:13:46 10° 152° (SSE) 1,969 5.6 -7.5°
Sets 16:16:03 0° 158° (SSE) 2,874 6.5 -7.8°
